Location: Vallejo Observatory
(38.1221°N, 122.2109°W)
Time: 01:08:28
(UTC-07:00)

Daily predictions for brighter satellites

Satellite Brightness Start Highest point End
(mag) Time Altitude Azimuth Time Altitude Azimuth Time Altitude Azimuth
Cosmos 1626 3.8 00:09:07 29° WNW 00:09:07 29° WNW 00:11:57 10° NNW
Terra 3.5 00:09:09 23° WSW 00:09:32 23° W 00:13:20 10° NW
SeaSat 1 2.4 00:18:03 78° NW 00:18:03 78° NW 00:22:42 10° NNW
Cosmos 1869 Rocket 4.1 00:18:55 56° NNE 00:18:55 56° NNE 00:22:30 10° N
ALOS 2 3.5 00:21:24 44° NE 00:21:24 44° NE 00:24:53 10° N
Cosmos 2227 Rocket 3.0 00:21:18 34° WSW 00:23:07 45° WNW 00:28:32 10° N
Lacrosse 4 Rocket 2.6 00:23:34 10° NNW 00:27:15 40° NE 00:27:15 40° NE
Cosmos 2333 Rocket 2.8 00:25:48 10° NW 00:31:11 45° WSW 00:31:11 45° WSW
Landsat 5 4.4 00:36:55 47° NE 00:36:55 47° NE 00:40:32 10° N
SL-16 R/B 2.1 00:31:38 10° NNW 00:37:20 77° ENE 00:37:24 77° ENE
Cosmos 372 Rocket 4.1 00:42:07 71° NE 00:42:07 71° NE 00:46:49 10° NNE
NOSS 2-3 (D) 4.3 00:45:41 58° NE 00:45:41 58° NE 00:50:13 10° NE
ASTEX 1 3.7 00:39:55 10° N 00:44:02 60° NE 00:44:02 60° NE
H-2A R/B 3.4 00:40:46 10° N 00:43:49 48° N 00:43:49 48° N
Cosmos 158 Rocket 4.5 00:42:37 10° N 00:47:41 51° ENE 00:47:41 51° ENE
Cosmos 2297 Rocket 3.3 00:49:17 33° W 00:50:46 39° WNW 00:56:03 10° N
Cosmos 1610 Rocket 4.5 00:51:26 65° ESE 00:51:37 66° E 00:57:40 10° NNE
Cosmos 2074 Rocket 3.8 00:51:28 77° SSW 00:51:57 84° W 00:58:17 10° N
Meteor 1-26 Rocket 4.3 00:46:42 10° NNW 00:52:09 69° W 00:52:09 69° W
GEOS 3 Rocket 4.1 00:57:53 51° W 00:57:53 51° W 01:02:09 10° NW
Okean 1-7 4.2 00:53:09 10° NNW 00:56:02 37° NW 00:56:02 37° NW
Cosmos 2327 Rocket 4.5 01:01:04 67° WSW 01:01:39 72° W 01:08:05 10° N
Cosmos 2219 Rocket 4.1 00:58:48 10° WNW 01:01:50 17° W 01:01:50 17° W
CZ-4C R/B 4.3 00:57:56 10° NNW 01:04:04 31° NE 01:10:42 10° ESE
CZ-2C R/B 3.0 01:00:41 10° NNE 01:05:09 52° ENE 01:05:09 52° ENE
Cosmos 2251 Rocket 3.9 01:01:37 10° N 01:06:45 57° ENE 01:06:45 57° ENE
COSMOS 2455 3.0 01:02:46 10° NW 01:08:21 61° W 01:08:21 61° W
Meteor 2-10 Rocket 3.7 01:04:36 10° N 01:10:06 76° ENE 01:10:06 76° ENE
Cosmos 1603 4.1 01:05:12 10° NNW 01:10:48 55° ENE 01:11:15 53° E
ATLAS 2AS CENTAUR R/B 4.0 01:07:20 18° WSW 01:12:35 42° NW 01:20:10 10° NNE
Helios 1A Rocket 4.1 01:11:44 10° N 01:14:39 42° NNW 01:14:39 42° NNW
Geosat 4.3 01:12:34 10° NNE 01:17:26 61° NW 01:17:26 61° NW
Cosmos 2154 Rocket 3.9 01:17:20 73° SE 01:17:41 75° E 01:23:59 10° N
Cosmos 1892 4.5 01:21:53 30° N 01:21:53 30° N 01:23:58 10° N
Meteor 2-3 Rocket 4.3 01:22:14 47° W 01:22:32 47° WNW 01:28:05 10° N
CZ-4B R/B 4.2 01:25:15 16° NW 01:25:15 16° NW 01:26:09 10° NW
Meteor 1-10 Rocket 4.2 01:18:36 10° N 01:24:34 83° E 01:24:42 82° ESE
Cosmos 921 Rocket 4.3 01:28:04 35° NE 01:28:04 35° NE 01:30:40 10° NNE
MOS 1-B Rocket 3.7 01:28:47 82° WSW 01:28:50 82° WSW 01:34:28 10° NNW
Cosmos 2237 Rocket 4.2 01:26:19 10° WNW 01:28:42 15° W 01:28:42 15° W
Cosmos 44 3.8 01:31:46 60° ENE 01:31:46 60° ENE 01:36:25 10° NE
Cosmos 1782 4.3 01:32:55 10° N 01:35:18 35° N 01:35:18 35° N
ATLAS 3B R/B 3.1 01:30:36 10° NW 01:36:40 45° WSW 01:36:40 45° WSW
Cosmos 1932 4.3 01:31:27 10° NNW 01:37:53 90° ENE 01:38:29 75° SSE
USA 238 DEB 3.6 01:32:31 10° NNW 01:39:36 86° ENE 01:41:01 61° SE
USA 238 3.7 01:32:37 10° NNW 01:39:42 85° ENE 01:41:09 60° SE
Sich 1 Rocket 4.3 01:42:45 52° N 01:42:45 52° N 01:46:14 10° N
FALCON 9 R/B 4.1 01:34:04 10° W 01:39:07 24° W 01:39:07 24° W
Cosmos 2341 Rocket 3.9 01:45:54 74° SW 01:46:29 82° W 01:52:55 10° N
Cosmos 494 Rocket 4.1 01:45:06 10° NNW 01:49:54 73° NW 01:49:54 73° NW
Cosmos 1825 3.8 01:52:05 33° NNE 01:52:05 33° NNE 01:54:20 10° NNE
Cosmos 1408 4.2 01:58:48 35° NNE 01:58:48 35° NNE 02:01:05 10° N
USA 234 4.0 01:55:51 10° ESE 02:02:06 51° NE 02:08:22 10° NW
Lacrosse 4 Rocket 4.1 02:03:15 10° WNW 02:03:35 11° WNW 02:03:35 11° WNW
ATLAS 2A CENTAUR R/B 4.2 02:09:15 26° SE 02:09:15 26° SE 02:18:10 10° ESE
SL-8 Rocket 3.8 02:09:34 70° S 02:10:24 90° NW 02:16:46 10° N
Cosmos 2218 Rocket 3.9 02:13:33 66° SSE 02:14:28 81° E 02:20:48 10° N
Cosmos 1378 Rocket 4.4 02:10:56 10° NNW 02:14:07 43° NW 02:14:07 43° NW
Cosmos 2263 Rocket 2.1 02:15:21 70° SE 02:15:38 71° ESE 02:21:19 10° NNE
Okean 3 4.2 02:13:37 10° N 02:16:55 51° NNW 02:16:55 51° NNW
SL-16 R/B 4.4 02:18:18 10° WNW 02:19:16 12° W 02:19:16 12° W
Meteor 1-27 Rocket 4.0 02:16:26 10° NNW 02:22:07 53° W 02:22:11 53° W
Okean 2 Rocket 3.4 02:24:54 61° NW 02:24:54 61° NW 02:28:51 10° N
Meteor 1-14 Rocket 4.5 02:25:22 56° SE 02:26:24 66° E 02:32:16 10° NNE
Cosmos 1371 Rocket 4.1 02:27:44 65° SE 02:28:04 66° ESE 02:33:24 10° NNE
Cosmos 2056 Rocket 4.0 02:29:04 47° ESE 02:29:32 49° ESE 02:34:36 10° NNE
Cosmos 2366 rocket 3.8 02:31:13 64° SSW 02:32:15 84° W 02:38:28 10° N
CZ-2C R/B 4.0 02:33:44 37° W 02:33:44 37° W 02:38:46 10° NNW
Cosmos 1782 Rocket 4.4 02:34:18 40° NW 02:34:18 40° NW 02:37:49 10° N
NOSS 3-4 (A) 3.5 02:32:22 56° SW 02:33:47 77° WNW 02:40:23 10° NNE
NOSS 3-4 (C) 3.5 02:32:28 56° SW 02:33:53 78° WNW 02:40:28 10° NNE
NOSS 3-2 (A) 3.9 02:30:43 10° NNW 02:38:20 90° NE 02:43:36 24° SSE
Landsat 4 4.3 02:43:57 55° N 02:43:57 55° N 02:46:59 10° N
AQUA 4.3 02:39:45 10° NNE 02:44:21 48° E 02:44:56 45° ESE
CZ-2C R/B 4.5 02:42:18 10° NNW 02:45:36 17° WNW 02:46:41 16° WNW
Cosmos 1943 3.3 02:41:29 10° NNW 02:47:02 56° WSW 02:47:08 55° WSW
IRS-P3 4.1 02:43:19 10° NNE 02:48:41 81° ESE 02:49:36 62° S
CZ-4C R/B 2.9 02:45:57 10° NW 02:53:08 65° WSW 02:56:17 38° S
Meteor 2-8 Rocket 4.3 02:47:45 10° N 02:53:51 83° W 02:55:30 51° S
Cosmos 1727 Rocket 3.9 02:48:23 10° N 02:54:36 72° W 02:56:07 52° SSW
Cosmos 1242 Rocket 3.4 02:52:50 10° N 02:55:23 46° N 02:55:23 46° N
PSLV R/B 4.2 02:52:22 10° N 02:56:09 43° WNW 02:56:09 43° WNW
Meteor 1-18 Rocket 4.4 02:51:28 10° N 02:57:06 69° E 02:59:24 37° SSE
Cosmos 1975 Rocket 4.5 02:54:39 10° NNW 02:57:29 26° WNW 02:57:29 26° WNW
CRYOSAT 2 4.5 02:55:53 10° N 03:00:38 56° W 03:00:57 54° W
Cosmos 1300 Rocket 4.2 03:00:49 43° ESE 03:01:31 47° E 03:05:42 10° NNE
Cosmos 1867 3.5 02:56:49 10° NNW 03:02:19 89° WSW 03:04:28 39° SSE
Resurs 1-4 Rocket 4.0 03:00:06 10° NE 03:04:15 23° E 03:07:27 14° SE
Cosmos 1536 Rocket 3.4 03:06:03 10° NNW 03:10:26 73° W 03:10:39 71° WSW
CBERS 1 LM4 rocket 4.4 03:08:38 10° NNE 03:13:34 72° ESE 03:14:50 48° S
Cosmos 1624 Rocket 4.2 03:13:21 48° WSW 03:14:24 57° WNW 03:19:34 10° N
Cosmos 909 Rocket 4.2 03:12:58 41° SW 03:15:21 71° WNW 03:22:34 10° NNE
Abrixas rocket 2.9 03:21:09 49° NNW 03:21:09 49° NNW 03:24:24 10° NE
IRAS Rocket 4.5 03:17:01 10° N 03:22:25 57° WNW 03:24:07 40° SW
Cosmos 2151 Rocket 4.4 03:22:35 35° W 03:22:47 35° WNW 03:26:53 10° N
Okean 1 3.4 03:19:14 10° N 03:23:14 74° E 03:24:05 52° SSE
Cosmos 1812 2.6 03:20:38 10° N 03:24:32 90° ENE 03:24:58 69° S
RESURS DK-1 3.4 03:26:24 31° WNW 03:26:55 32° WNW 03:30:42 10° N
Cosmos 1934 Rocket 4.2 03:24:15 26° SSE 03:27:50 66° E 03:33:58 10° NNE
NPP 4.0 03:22:59 10° N 03:28:12 52° WNW 03:29:51 38° WSW
Okean 1-7 Rocket 3.9 03:23:39 10° N 03:28:13 68° E 03:30:19 31° SSE
Meteor 1-20 Rocket 4.3 03:26:06 41° SSW 03:28:14 74° W 03:34:04 10° N
ERS-2 2.6 03:25:31 10° N 03:29:06 47° WNW 03:29:10 47° WNW
ADEOS 3.5 03:25:51 10° NNE 03:31:06 85° WNW 03:33:04 40° SSW
Iridium 4 Rocket 4.0 03:27:17 10° NNW 03:31:32 36° W 03:32:06 34° WSW
Cosmos 1452 Rocket 3.5 03:33:40 39° SSW 03:35:41 85° ESE 03:40:58 10° NNE
ARIANE 5 R/B 2.7 03:31:32 10° NNE 03:36:29 62° E 03:39:00 29° S
SL-16 R/B 3.1 03:30:36 10° SSE 03:36:41 58° ENE 03:42:46 10° N
Okean 1 Rocket 3.0 03:37:38 48° SSW 03:38:46 71° W 03:43:14 10° N
Cosmos 1000 Rocket 4.4 03:34:29 10° NNW 03:40:36 71° W 03:44:02 28° S
Okean O Rocket 4.0 03:38:32 10° NE 03:41:26 17° E 03:44:20 10° SE
SME Rocket 4.3 03:39:16 10° SE 03:42:44 36° ENE 03:46:22 10° N
USA 234 3.5 03:38:56 10° SSE 03:45:06 45° SW 03:51:19 10° WNW
Centaur D-1A AC-32 4.4 03:45:51 27° SSW 03:48:35 33° S 04:13:16 10° ESE
GP-B 3.6 03:46:43 10° NNW 03:50:54 42° W 03:52:01 35° WSW
TIMED 4.4 03:49:25 38° SSW 03:51:05 88° E 03:55:28 10° NNE
CZ-2D R/B 2.4 03:47:52 10° NNE 03:53:18 66° ESE 03:57:07 20° S
Cosmos 1844 Rocket 2.7 03:54:52 29° SSW 03:57:49 76° WNW 04:03:30 10° NNE
Cosmos 1605 Rocket 4.0 03:53:30 19° S 03:58:01 80° E 04:04:17 10° N
OAO 2 Rocket 4.3 03:59:09 27° SSW 03:59:09 27° SSW 04:02:59 10° SSE
Cosmos 1821 Rocket 4.2 03:55:57 27° SSW 03:59:27 59° W 04:05:47 10° N
Cosmos 1844 3.7 03:56:10 26° SSW 03:59:28 82° ESE 04:05:14 10° NNE
Cosmos 2263 Rocket 4.1 03:57:02 12° W 04:00:08 17° NW 04:03:48 10° NNW
SL-08 R/B 4.4 03:59:40 25° WSW 04:00:25 26° W 04:04:33 10° NW
Cosmos 2123 Rocket 4.0 03:56:41 10° N 04:03:03 86° W 04:09:16 10° S
Tiangong 1 0.8 04:03:40 39° W 04:04:34 66° SSW 04:07:37 10° ESE
Cosmos 1461 3.9 04:02:35 21° S 04:05:24 47° ESE 04:09:52 10° NE
Cosmos 1455 Rocket 4.3 04:01:41 10° SSE 04:05:50 40° E 04:10:00 10° NNE
CENTAUR R/B 3.2 03:58:09 10° NNW 04:06:05 80° ENE 04:14:25 10° SE
COSMOS 2406 3.4 04:01:09 10° NNW 04:06:42 50° WSW 04:11:15 15° S
Cosmos 1602 3.8 04:06:05 33° SSW 04:07:34 60° W 04:11:24 10° N
Meteor 2-15 Rocket 4.5 04:04:23 10° N 04:10:34 87° E 04:16:43 10° S
UNK 3.6 04:08:36 13° S 04:12:39 78° WSW 04:17:19 10° NNW
Cosmos 2278 Rocket 2.3 04:10:24 19° S 04:14:32 73° ESE 04:20:12 10° NNE
Cosmos 1025 Rocket 2.9 04:11:44 10° N 04:16:01 75° W 04:19:37 14° S
Cosmos 1140 Rocket 3.5 04:11:48 10° NNW 04:16:58 85° ENE 04:22:05 10° SSE
Cosmos 1536 2.8 04:15:41 24° SSW 04:17:58 66° W 04:22:03 10° N
USA 161 3.1 04:18:32 19° WNW 04:18:32 19° WNW 04:20:14 10° NW
BREEZE-M DEB (TANK) 2.8 04:18:23 24° S 04:19:23 31° SE 04:21:57 10° ENE
SL-27 R/B 3.5 04:17:21 10° NW 04:20:30 27° W 04:21:10 25° WSW
Cosmos 1850 Rocket 4.3 04:15:24 10° NNW 04:20:38 70° ENE 04:25:52 10° SSE
Cosmos 1741 Rocket 4.4 04:15:58 10° NNW 04:21:15 68° ENE 04:26:27 10° SSE
Cosmos 407 Rocket 4.4 04:19:14 10° NW 04:23:37 28° W 04:26:04 20° SW
OTV 4 1.1 04:25:34 31° SW 04:26:00 33° SSW 04:28:41 10° SE
ATLAS 5 CENTAUR R/B 3.7 04:21:27 10° NNW 04:27:11 45° NE 04:33:15 10° ESE
UNKNOWN OBJECT B 2.9 04:26:57 10° N 04:31:01 66° WNW 04:34:06 17° SSW
Cosmos 1544 Rocket 3.5 04:27:32 16° SSW 04:31:02 72° W 04:35:27 10° N
CZ-4B R/B 3.9 04:26:28 10° NNE 04:32:03 54° E 04:37:33 10° S
NOSS 2-2 (D) 3.8 04:30:33 20° SW 04:33:17 59° NW 04:37:57 10° NNE
Meteor 2-4 Rocket 3.5 04:28:21 10° NNW 04:33:45 76° W 04:39:04 10° S
Cosmos 2082 Rocket 4.2 04:29:28 10° N 04:34:37 33° ENE 04:39:42 10° ESE
PSLV R/B 4.2 04:30:47 10° NNE 04:34:57 69° ESE 04:39:02 10° S
Cosmos 2173 Rocket 4.4 04:30:21 10° S 04:36:19 62° E 04:42:21 10° NNE
IRS-1D 4.3 04:33:45 10° N 04:38:22 36° WNW 04:41:57 15° SW
Resurs 1-4 Rocket 2.7 04:39:14 10° N 04:44:12 41° WNW 04:48:32 13° SW
Gbstr 26 Del rocket 3.6 04:41:51 13° W 04:45:05 39° NNW 04:48:36 10° NE
USA 129 1.6 04:43:26 14° S 04:45:08 60° WSW 04:47:14 10° NNW
NOSS 2-2 (C) 4.3 04:44:41 15° WSW 04:47:53 42° NW 04:52:23 10° NNE
Cosmos 1633 3.6 04:46:03 16° SW 04:48:16 29° WNW 04:51:27 10° NNW
IRS-1C Rocket 4.1 04:43:03 10° N 04:48:20 77° WNW 04:53:34 10° SSW
Cosmos 2100 Rocket 4.0 04:45:26 10° S 04:51:39 89° W 04:58:00 10° N
Cosmos 1892 Rocket 4.0 04:50:01 10° NNW 04:54:06 41° W 04:58:09 10° SSW
ASTRO F (AKARI) 4.3 04:50:58 10° S 04:54:14 69° WSW 04:57:42 10° NNW
Cosmos 1459 Rocket 4.1 04:48:15 10° S 04:54:37 90° W 05:00:58 10° N
Okean-O 3.7 04:58:50 10° NNE 05:03:07 46° E 05:07:22 10° S
Cosmos 1400 Rocket 3.9 05:01:00 11° SW 05:04:07 26° WNW 05:07:29 10° NNW
Timation 2 Rocket 3.9 05:00:34 10° NNW 05:06:43 77° WSW 05:12:40 10° SSE
COSMOS 2487 3.6 05:06:03 10° NW 05:09:05 25° W 05:12:05 10° SSW
CZ-2C R/B 4.1 05:06:01 10° S 05:10:33 48° W 05:15:12 10° NNW
ADEOS II 3.4 05:07:05 10° NNE 05:12:03 41° E 05:16:59 10° SSE
Cosmos 2061 Rocket 4.1 05:06:50 10° SSW 05:13:04 66° W 05:19:27 10° N
CZ-4B R/B 3.2 05:10:22 10° N 05:14:54 67° WNW 05:19:20 10° SSW
ARIANE 5 R/B 4.4 05:12:24 10° NNW 05:15:05 15° WNW 05:17:45 10° W
Okean O Rocket 2.3 05:13:56 10° N 05:17:56 37° WNW 05:21:54 10° SW
SL-16 R/B 3.8 05:16:07 10° SW 05:20:38 21° W 05:25:10 10° NW
Thor Agena Rocket 3.7 05:16:30 10° S 05:21:35 55° WSW 05:26:38 10° NNW
